Home   Weather   Honolulu   Past weeks
Flag for USA

Past Weather in Honolulu, Hawaii, USA — Yesterday and Last 2 Weeks

Now
78 °F

Passing clouds.


Feels Like: 80 °F
Forecast: 83 / 75 °F
Wind: 3 mph from North

Location: Honolulu International Airport

Current Time: Oct 18, 2019 at 4:36:49 am

Latest Report: Oct 18, 2019 at 3:53 am


Visibility: 10 mi

Pressure: 30.02 "Hg

Humidity: 71%

Dew Point: 68 °F

Location of HonoluluLocation

Past Weather in Honolulu — Graph

°F

Honolulu Temperature Yesterday

Maximum temperature yesterday: 88 °F (at 11:53 am)
Minimum temperature yesterday: 77 °F (at 9:53 pm)
Average temperature yesterday: 82 °F

High & Low Weather Summary for the Past Weeks

 TemperatureHumidityPressure
High90 °F (Oct 10, 11:53 am)94% (Oct 11, 4:53 am)30.09 "Hg (Oct 11, 4:53 am)
Low72 °F (Oct 6, 4:53 am)46% (Oct 4, 12:53 pm)29.83 "Hg (Oct 6, 3:53 pm)
Average81 °F66%29.95 "Hg
* Reported Oct 3 2:53 am — Oct 18 2:53 am, Honolulu. Weather by CustomWeather, © 2019

Note: Actual official high and low records may vary slightly from our data, if they occured in-between our weather recording intervals... More about our weather records

Advertising

Honolulu Weather History for the Previous 24 Hours

Scroll right to see more
 ConditionsComfort  
Time TempWeatherWind HumidityBarometerVisibility
2:53 am
Fri, Oct 18
78 °FPassing clouds.3 mph74%30.03 "Hg10 mi
1:53 am78 °FPartly cloudy.8 mph76%30.04 "Hg10 mi
12:53 am78 °FPassing clouds.6 mph74%30.06 "Hg10 mi
11:53 pm
Thu, Oct 17
78 °FPassing clouds.5 mph74%30.08 "Hg10 mi
10:53 pm77 °FPassing clouds.7 mph79%30.09 "Hg10 mi
9:53 pm77 °FLight rain. Partly cloudy.3 mph82%30.09 "Hg10 mi
8:53 pm80 °FPartly cloudy.6 mph69%30.08 "Hg10 mi
7:53 pm79 °FPassing clouds.8 mph74%30.06 "Hg10 mi
6:53 pm81 °FPassing clouds.14 mph67%30.04 "Hg10 mi
5:53 pm82 °FScattered clouds.15 mph65%30.02 "Hg10 mi
4:53 pm84 °FScattered clouds.15 mph61%30.00 "Hg10 mi
3:53 pm86 °FScattered clouds.15 mph51%30.00 "Hg10 mi
2:53 pm87 °FScattered clouds.17 mph51%30.00 "Hg10 mi
1:53 pm88 °FScattered clouds.18 mph50%30.01 "Hg10 mi
12:53 pm86 °FBroken clouds.16 mph55%30.03 "Hg10 mi
11:53 am88 °FScattered clouds.17 mph52%30.04 "Hg10 mi
10:53 am87 °FScattered clouds.16 mph53%30.06 "Hg10 mi
9:53 am85 °FScattered clouds.14 mph59%30.06 "Hg10 mi
8:53 am84 °FScattered clouds.13 mph59%30.06 "Hg10 mi
7:53 am82 °FScattered clouds.7 mph65%30.04 "Hg10 mi
6:53 am79 °FScattered clouds.8 mph72%30.02 "Hg10 mi
5:53 am79 °FPassing clouds.7 mph72%30.01 "Hg10 mi
Weather by CustomWeather, © 2019

See weather overview